• In Russia
  • List of Countries
  • For 7 days
  • Water Temperature
  • Weather Map
  • Weather Widgets
  • user-avatar
    Login

    Hourly Weather Sevan

    Today, 29 January, Wednesday

    Time Temperature Precipitation Wind Pressure Humidity
    00:00 -3°C° 0 mm 1 mps 638 mmHg 57%
    01:00 -3°C° 0 mm 1 mps 638 mmHg 58%
    02:00 -3°C° 0 mm 1 mps 638 mmHg 59%
    03:00 -3°C° 0 mm 1 mps 638 mmHg 61%
    04:00 -4°C° 0 mm 1 mps 637 mmHg 61%
    05:00 -4°C° 0 mm 1 mps 637 mmHg 61%
    06:00 -4°C° 0 mm 1 mps 637 mmHg 61%
    07:00 -3°C° 0 mm 1 mps 637 mmHg 61%
    08:00 -2°C° 0 mm 1 mps 638 mmHg 61%
    09:00 -1°C° 0 mm 1 mps 638 mmHg 61%
    10:00 0°C° 0 mm 1 mps 638 mmHg 60%
    11:00 0°C° 0 mm 1 mps 638 mmHg 59%
    12:00 +1°C° 0 mm 1 mps 638 mmHg 59%
    13:00 +1°C° 0 mm 1 mps 637 mmHg 60%
    14:00 +1°C° 0 mm 1 mps 637 mmHg 62%
    15:00 +1°C° 0 mm 1 mps 637 mmHg 63%
    16:00 0°C° 0 mm 1 mps 637 mmHg 63%
    17:00 -1°C° 0 mm 1 mps 637 mmHg 63%
    18:00 -3°C° 0 mm 1 mps 636 mmHg 63%
    19:00 -3°C° 0 mm 1 mps 637 mmHg 63%
    20:00 -3°C° 0 mm 1 mps 637 mmHg 64%
    21:00 -4°C° 0 mm 1 mps 637 mmHg 65%
    22:00 -4°C° 0 mm 1 mps 637 mmHg 66%
    23:00 -4°C° 0 mm 1 mps 637 mmHg 67%

    Tomorrow, 30 January, Thursday

    Time Temperature Precipitation Wind Pressure Humidity
    00:00 -4°C° 0 mm 1 mps 638 mmHg 68%
    01:00 -4°C° 0 mm 1 mps 638 mmHg 70%
    02:00 -4°C° 0 mm 1 mps 637 mmHg 71%
    03:00 -4°C° 0 mm 1 mps 637 mmHg 73%
    04:00 -6°C° 0 mm 2 mps 638 mmHg 75%
    05:00 -6°C° 0 mm 2 mps 638 mmHg 76%
    06:00 -6°C° 0 mm 2 mps 638 mmHg 78%
    07:00 -6°C° 0 mm 2 mps 638 mmHg 77%
    08:00 -3°C° 0 mm 1 mps 639 mmHg 75%
    09:00 -2°C° 0 mm 1 mps 639 mmHg 74%
    10:00 -3°C° 0 mm 2 mps 639 mmHg 73%
    11:00 -2°C° 0 mm 2 mps 638 mmHg 72%
    12:00 -2°C° 0 mm 2 mps 638 mmHg 70%
    13:00 -1°C° 0 mm 2 mps 638 mmHg 70%
    14:00 -1°C° 0 mm 2 mps 638 mmHg 70%
    15:00 -1°C° 0 mm 2 mps 637 mmHg 70%
    16:00 -2°C° 0 mm 2 mps 637 mmHg 71%
    17:00 -3°C° 0 mm 2 mps 637 mmHg 72%
    18:00 -4°C° 0 mm 2 mps 637 mmHg 73%
    19:00 -4°C° 0 mm 2 mps 637 mmHg 73%
    20:00 -4°C° 0 mm 2 mps 637 mmHg 73%
    21:00 -4°C° 0 mm 2 mps 637 mmHg 73%
    22:00 -4°C° 0 mm 2 mps 636 mmHg 73%
    23:00 -4°C° 0 mm 2 mps 636 mmHg 74%

    Day after tomorrow, 31 January, Friday

    Time Temperature Precipitation Wind Pressure Humidity
    00:00 -4°C° 0 mm 2 mps 636 mmHg 75%
    01:00 -4°C° 0 mm 2 mps 635 mmHg 75%
    02:00 -4°C° 0 mm 2 mps 635 mmHg 76%
    03:00 -4°C° 0 mm 2 mps 635 mmHg 76%
    04:00 -4°C° 0 mm 2 mps 634 mmHg 77%
    05:00 -4°C° 0 mm 2 mps 634 mmHg 77%
    06:00 -4°C° 0 mm 2 mps 634 mmHg 78%
    07:00 -4°C° 0 mm 2 mps 634 mmHg 78%
    08:00 -3°C° 0 mm 2 mps 634 mmHg 77%
    09:00 -3°C° 0 mm 2 mps 634 mmHg 76%
    10:00 -2°C° 0 mm 2 mps 633 mmHg 76%
    11:00 -1°C° 0 mm 2 mps 633 mmHg 75%
    12:00 -1°C° 0 mm 2 mps 633 mmHg 75%
    13:00 +1°C° 0 mm 2 mps 632 mmHg 75%
    14:00 +1°C° 0 mm 2 mps 632 mmHg 75%
    15:00 +1°C° 0 mm 2 mps 631 mmHg 75%
    16:00 -1°C° 0.1 mm 2 mps 631 mmHg 77%
    17:00 +1°C° 0.1 mm 1 mps 631 mmHg 79%
    18:00 0°C° 0.1 mm 1 mps 631 mmHg 81%
    19:00 0°C° 0.5 mm 1 mps 631 mmHg 84%
    20:00 0°C° 0.5 mm 1 mps 631 mmHg 87%
    21:00 0°C° 0.5 mm 1 mps 631 mmHg 90%
    22:00 0°C° 0.6 mm 1 mps 631 mmHg 92%
    23:00 -1°C° 0.6 mm 1 mps 631 mmHg 94%

    1 February, Saturday

    Time Temperature Precipitation Wind Pressure Humidity
    00:00 -1°C° 0.6 mm 1 mps 631 mmHg 96%
    01:00 -1°C° 1.4 mm 1 mps 631 mmHg 96%
    02:00 -1°C° 1.4 mm 1 mps 631 mmHg 96%
    03:00 -1°C° 1.4 mm 1 mps 631 mmHg 95%
    04:00 -2°C° 0.2 mm 1 mps 631 mmHg 94%
    05:00 -2°C° 0.2 mm 1 mps 631 mmHg 92%
    06:00 -3°C° 0.2 mm 1 mps 631 mmHg 91%
    07:00 -3°C° 0 mm 1 mps 631 mmHg 88%
    08:00 -3°C° 0 mm 1 mps 632 mmHg 85%
    09:00 -3°C° 0 mm 1 mps 633 mmHg 83%
    10:00 -2°C° 0 mm 1 mps 633 mmHg 81%
    11:00 -1°C° 0 mm 1 mps 633 mmHg 80%
    12:00 0°C° 0 mm 1 mps 633 mmHg 78%
    13:00 0°C° 0 mm 1 mps 634 mmHg 79%
    14:00 0°C° 0 mm 1 mps 634 mmHg 80%
    15:00 0°C° 0 mm 1 mps 634 mmHg 81%
    16:00 -1°C° 0 mm 1 mps 634 mmHg 81%
    17:00 -2°C° 0 mm 1 mps 635 mmHg 81%
    18:00 -4°C° 0 mm 1 mps 635 mmHg 81%
    19:00 -6°C° 0 mm 2 mps 635 mmHg 79%
    20:00 -7°C° 0 mm 2 mps 636 mmHg 77%
    21:00 -7°C° 0 mm 2 mps 636 mmHg 75%
    22:00 -8°C° 0 mm 2 mps 636 mmHg 73%
    23:00 -8°C° 0 mm 2 mps 636 mmHg 71%

    2 February, Sunday

    Time Temperature Precipitation Wind Pressure Humidity
    00:00 -9°C° 0 mm 2 mps 636 mmHg 69%
    01:00 -8°C° 0 mm 1 mps 637 mmHg 69%
    02:00 -8°C° 0 mm 1 mps 637 mmHg 68%
    03:00 -8°C° 0 mm 1 mps 637 mmHg 67%
    04:00 -8°C° 0 mm 1 mps 637 mmHg 68%
    05:00 -7°C° 0 mm 1 mps 637 mmHg 69%
    06:00 -7°C° 0 mm 1 mps 638 mmHg 69%
    07:00 -6°C° 0 mm 1 mps 638 mmHg 70%
    08:00 -6°C° 0 mm 1 mps 639 mmHg 70%
    09:00 -4°C° 0 mm 1 mps 639 mmHg 71%
    10:00 -3°C° 0 mm 1 mps 639 mmHg 68%
    11:00 -3°C° 0 mm 1 mps 639 mmHg 66%
    12:00 -2°C° 0 mm 1 mps 639 mmHg 64%
    13:00 -2°C° 0 mm 1 mps 639 mmHg 65%
    14:00 -2°C° 0 mm 1 mps 639 mmHg 66%
    15:00 -2°C° 0 mm 1 mps 639 mmHg 67%
    16:00 -3°C° 0 mm 1 mps 639 mmHg 67%
    17:00 -4°C° 0 mm 1 mps 639 mmHg 68%
    18:00 -8°C° 0 mm 2 mps 639 mmHg 68%
    19:00 -8°C° 0 mm 2 mps 639 mmHg 67%
    20:00 -8°C° 0 mm 2 mps 640 mmHg 66%
    21:00 -8°C° 0 mm 2 mps 640 mmHg 66%
    22:00 -9°C° 0 mm 2 mps 640 mmHg 66%
    23:00 -9°C° 0 mm 2 mps 641 mmHg 67%

    3 February, Monday

    Time Temperature Precipitation Wind Pressure Humidity
    00:00 -8°C° 0 mm 1 mps 641 mmHg 67%
    01:00 -8°C° 0 mm 1 mps 641 mmHg 68%
    02:00 -8°C° 0 mm 1 mps 641 mmHg 68%
    03:00 -8°C° 0 mm 1 mps 641 mmHg 69%
    04:00 -8°C° 0 mm 1 mps 641 mmHg 69%
    05:00 -9°C° 0 mm 1 mps 640 mmHg 70%
    06:00 -9°C° 0 mm 1 mps 640 mmHg 70%
    07:00 -8°C° 0 mm 1 mps 641 mmHg 70%
    08:00 -7°C° 0 mm 1 mps 641 mmHg 71%
    09:00 -6°C° 0 mm 1 mps 641 mmHg 71%
    10:00 -4°C° 0 mm 1 mps 641 mmHg 70%
    11:00 -3°C° 0 mm 1 mps 641 mmHg 70%
    12:00 -2°C° 0 mm 1 mps 641 mmHg 69%
    13:00 -2°C° 0 mm 1 mps 640 mmHg 70%
    14:00 -2°C° 0 mm 1 mps 640 mmHg 71%
    15:00 -1°C° 0 mm 1 mps 640 mmHg 71%
    16:00 -3°C° 0 mm 1 mps 639 mmHg 71%
    17:00 -4°C° 0 mm 1 mps 639 mmHg 71%
    18:00 -6°C° 0 mm 1 mps 639 mmHg 71%
    19:00 -6°C° 0 mm 1 mps 639 mmHg 70%
    20:00 -6°C° 0 mm 1 mps 638 mmHg 69%
    21:00 -6°C° 0 mm 1 mps 638 mmHg 68%
    22:00 -6°C° 0 mm 1 mps 638 mmHg 69%
    23:00 -7°C° 0 mm 1 mps 638 mmHg 69%
    Show more